Time,TemperatureF,DewpointF,PressureIn,WindDirection,WindDirectionDegrees,WindSpeedMPH,WindSpeedGustMPH,Humidity,HourlyPrecipIn,Conditions,Clouds,dailyrainin,SoftwareType,DateUTC
2013-02-04 00:02:00,36.8,30.0,30.15,NNE,13,0.0,0.0,75,0.00,,,0.00,weatherlink.com 1.10,2013-02-04 06:02:00,
2013-02-04 00:17:00,36.9,30.0,30.14,NNE,12,0.0,0.0,77,0.00,,,0.00,weatherlink.com 1.10,2013-02-04 06:17:00,
2013-02-04 00:32:00,36.7,30.0,30.14,NNE,13,0.0,0.0,78,0.00,,,0.00,weatherlink.com 1.10,2013-02-04 06:32:00,
2013-02-04 00:47:00,36.8,30.0,30.14,NNE,12,0.0,0.0,77,0.00,,,0.00,weatherlink.com 1.10,2013-02-04 06:47:00,
2013-02-04 01:02:00,36.8,30.0,30.13,NNE,12,0.0,0.0,76,0.00,,,0.00,weatherlink.com 1.10,2013-02-04 07:02:00,
2013-02-04 01:17:00,37.1,30.0,30.12,NNE,12,0.0,0.0,76,0.00,,,0.00,weatherlink.com 1.10,2013-02-04 07:17:00,
2013-02-04 01:32:00,37.6,30.0,30.12,NNE,12,0.0,0.0,73,0.00,,,0.00,weatherlink.com 1.10,2013-02-04 07:32:00,
2013-02-04 01:47:00,37.6,30.0,30.12,NNE,12,0.0,0.0,73,0.00,,,0.00,weatherlink.com 1.10,2013-02-04 07:47:00,
2013-02-04 02:02:00,37.8,30.0,30.12,NNE,12,0.0,0.0,74,0.00,,,0.00,weatherlink.com 1.10,2013-02-04 08:02:00,
2013-02-04 02:17:00,38.2,31.0,30.12,NNE,12,0.0,0.0,75,0.00,,,0.00,weatherlink.com 1.10,2013-02-04 08:17:00,
2013-02-04 02:32:00,37.8,30.0,30.13,NNE,12,0.0,0.0,74,0.00,,,0.00,weatherlink.com 1.10,2013-02-04 08:32:00,
2013-02-04 02:47:00,37.1,30.0,30.13,NNE,12,0.0,0.0,74,0.00,,,0.00,weatherlink.com 1.10,2013-02-04 08:47:00,
2013-02-04 03:02:00,37.0,29.0,30.12,NNE,12,0.0,0.0,74,0.00,,,0.00,weatherlink.com 1.10,2013-02-04 09:02:00,
2013-02-04 03:17:00,37.1,30.0,30.11,NNE,13,0.0,0.0,76,0.00,,,0.00,weatherlink.com 1.10,2013-02-04 09:17:00,
2013-02-04 03:32:00,36.7,28.0,30.11,NNE,12,0.0,0.0,72,0.00,,,0.00,weatherlink.com 1.10,2013-02-04 09:32:00,
2013-02-04 03:47:00,37.5,28.0,30.10,SSW,198,0.0,0.0,69,0.00,,,0.00,weatherlink.com 1.10,2013-02-04 09:47:00,
2013-02-04 04:02:00,39.0,28.0,30.10,South,171,2.0,2.0,65,0.00,,,0.00,weatherlink.com 1.10,2013-02-04 10:02:00,
2013-02-04 04:18:00,40.0,28.0,30.10,South,176,2.0,3.0,63,0.00,,,0.00,weatherlink.com 1.10,2013-02-04 10:18:00,
2013-02-04 04:33:00,40.4,29.0,30.09,South,191,1.0,3.0,63,0.00,,,0.00,weatherlink.com 1.10,2013-02-04 10:33:00,
2013-02-04 04:48:00,40.3,29.0,30.09,SSW,200,2.0,4.0,64,0.00,,,0.00,weatherlink.com 1.10,2013-02-04 10:48:00,
2013-02-04 05:03:00,40.4,29.0,30.09,South,186,1.0,5.0,64,0.00,,,0.00,weatherlink.com 1.10,2013-02-04 11:03:00,
2013-02-04 05:18:00,40.4,29.0,30.08,South,190,0.0,3.0,64,0.00,,,0.00,weatherlink.com 1.10,2013-02-04 11:18:00,
2013-02-04 05:33:00,40.3,29.0,30.07,ESE,108,0.0,2.0,65,0.00,,,0.00,weatherlink.com 1.10,2013-02-04 11:33:00,
2013-02-04 05:48:00,40.3,29.0,30.07,SSE,156,0.0,1.0,65,0.00,,,0.00,weatherlink.com 1.10,2013-02-04 11:48:00,
2013-02-04 06:03:00,40.2,29.0,30.06,SSE,149,0.0,1.0,65,0.00,,,0.00,weatherlink.com 1.10,2013-02-04 12:03:00,
2013-02-04 06:18:00,40.1,29.0,30.06,SSE,165,1.0,1.0,66,0.00,,,0.00,weatherlink.com 1.10,2013-02-04 12:18:00,
2013-02-04 06:33:00,40.4,29.0,30.06,SSE,160,2.0,3.0,65,0.00,,,0.00,weatherlink.com 1.10,2013-02-04 12:33:00,
2013-02-04 06:48:00,40.8,29.0,30.05,South,173,5.0,5.0,64,0.00,,,0.00,weatherlink.com 1.10,2013-02-04 12:48:00,
2013-02-04 07:03:00,41.4,30.0,30.05,SSW,200,2.0,9.0,63,0.00,,,0.00,weatherlink.com 1.10,2013-02-04 13:03:00,
2013-02-04 07:18:00,41.7,29.0,30.05,SSE,166,2.0,4.0,62,0.00,,,0.00,weatherlink.com 1.10,2013-02-04 13:18:00,
2013-02-04 07:33:00,42.1,29.0,30.06,South,177,3.0,7.0,61,0.00,,,0.00,weatherlink.com 1.10,2013-02-04 13:33:00,
2013-02-04 07:48:00,42.4,30.0,30.06,SSW,192,1.0,5.0,61,0.00,,,0.00,weatherlink.com 1.10,2013-02-04 13:48:00,
2013-02-04 08:04:00,42.7,30.0,30.05,NNE,25,1.0,5.0,61,0.00,,,0.00,weatherlink.com 1.10,2013-02-04 14:04:00,
2013-02-04 08:18:00,43.0,30.0,30.06,South,190,2.0,4.0,61,0.00,,,0.00,weatherlink.com 1.10,2013-02-04 14:18:00,
2013-02-04 08:33:00,43.4,30.0,30.07,South,174,3.0,4.0,60,0.00,,,0.00,weatherlink.com 1.10,2013-02-04 14:33:00,
2013-02-04 08:48:00,43.7,30.0,30.06,South,169,0.0,5.0,60,0.00,,,0.00,weatherlink.com 1.10,2013-02-04 14:48:00,
2013-02-04 09:03:00,44.1,31.0,30.06,SE,130,2.0,4.0,60,0.00,,,0.00,weatherlink.com 1.10,2013-02-04 15:03:00,
2013-02-04 09:18:00,44.4,31.0,30.06,East,82,2.0,6.0,60,0.00,,,0.00,weatherlink.com 1.10,2013-02-04 15:18:00,
2013-02-04 09:33:00,45.1,31.0,30.05,SSE,148,1.0,4.0,59,0.00,,,0.00,weatherlink.com 1.10,2013-02-04 15:33:00,
2013-02-04 09:48:00,46.3,32.0,30.06,SSE,150,2.0,5.0,57,0.00,,,0.00,weatherlink.com 1.10,2013-02-04 15:48:00,
2013-02-04 10:03:00,47.2,31.0,30.06,South,173,3.0,6.0,54,0.00,,,0.00,weatherlink.com 1.10,2013-02-04 16:03:00,
2013-02-04 10:18:00,47.3,32.0,30.06,SSE,151,3.0,8.0,55,0.00,,,0.00,weatherlink.com 1.10,2013-02-04 16:18:00,
2013-02-04 10:33:00,47.7,32.0,30.05,WSW,240,3.0,6.0,54,0.00,,,0.00,weatherlink.com 1.10,2013-02-04 16:33:00,
2013-02-04 10:48:00,49.0,33.0,30.05,SSW,198,3.0,5.0,54,0.00,,,0.00,weatherlink.com 1.10,2013-02-04 16:48:00,
2013-02-04 11:03:00,50.6,33.0,30.05,South,177,1.0,5.0,52,0.00,,,0.00,weatherlink.com 1.10,2013-02-04 17:03:00,
2013-02-04 11:19:00,52.6,34.0,30.05,SW,214,2.0,5.0,49,0.00,,,0.00,weatherlink.com 1.10,2013-02-04 17:19:00,
2013-02-04 11:34:00,54.6,33.0,30.05,South,172,3.0,6.0,45,0.00,,,0.00,weatherlink.com 1.10,2013-02-04 17:34:00,
2013-02-04 11:49:00,55.5,33.0,30.04,SSE,166,2.0,7.0,42,0.00,,,0.00,weatherlink.com 1.10,2013-02-04 17:49:00,
2013-02-04 12:04:00,56.2,33.0,30.03,SSE,159,4.0,6.0,42,0.00,,,0.00,weatherlink.com 1.10,2013-02-04 18:04:00,
2013-02-04 12:19:00,57.3,33.0,30.02,SW,214,3.0,6.0,40,0.00,,,0.00,weatherlink.com 1.10,2013-02-04 18:19:00,
2013-02-04 12:34:00,57.5,34.0,30.00,South,177,1.0,5.0,41,0.00,,,0.00,weatherlink.com 1.10,2013-02-04 18:34:00,
2013-02-04 12:49:00,57.2,33.0,30.00,South,190,1.0,9.0,41,0.00,,,0.00,weatherlink.com 1.10,2013-02-04 18:49:00,
2013-02-04 13:04:00,58.9,34.0,29.99,SW,236,2.0,5.0,39,0.00,,,0.00,weatherlink.com 1.10,2013-02-04 19:04:00,
2013-02-04 13:19:00,58.7,34.0,29.99,WNW,282,5.0,6.0,39,0.00,,,0.00,weatherlink.com 1.10,2013-02-04 19:19:00,
2013-02-04 13:35:00,58.3,33.0,29.98,SSW,205,3.0,7.0,39,0.00,,,0.00,weatherlink.com 1.10,2013-02-04 19:35:00,
2013-02-04 13:49:00,57.3,33.0,29.98,WNW,285,2.0,6.0,40,0.00,,,0.00,weatherlink.com 1.10,2013-02-04 19:49:00,
2013-02-04 14:04:00,56.4,33.0,29.98,SW,214,1.0,5.0,42,0.00,,,0.00,weatherlink.com 1.10,2013-02-04 20:04:00,
2013-02-04 14:19:00,55.9,33.0,29.98,SSW,203,2.0,4.0,43,0.00,,,0.00,weatherlink.com 1.10,2013-02-04 20:19:00,
2013-02-04 14:34:00,55.7,34.0,29.98,SSW,207,2.0,5.0,44,0.00,,,0.00,weatherlink.com 1.10,2013-02-04 20:34:00,
2013-02-04 14:49:00,55.4,34.0,29.97,WSW,249,0.0,4.0,45,0.00,,,0.00,weatherlink.com 1.10,2013-02-04 20:49:00,
2013-02-04 15:04:00,55.0,34.0,29.97,SSW,195,2.0,3.0,46,0.00,,,0.00,weatherlink.com 1.10,2013-02-04 21:04:00,
2013-02-04 15:19:00,54.3,37.0,29.97,WSW,238,2.0,4.0,52,0.00,,,0.00,weatherlink.com 1.10,2013-02-04 21:19:00,
2013-02-04 15:34:00,53.3,40.0,29.97,SSW,201,0.0,2.0,60,0.00,,,0.00,weatherlink.com 1.10,2013-02-04 21:34:00,
2013-02-04 15:49:00,52.2,39.0,29.97,West,269,0.0,2.0,62,0.00,,,0.00,weatherlink.com 1.10,2013-02-04 21:49:00,
2013-02-04 16:04:00,51.4,40.0,29.97,SSE,165,0.0,2.0,66,0.01,,,0.01,weatherlink.com 1.10,2013-02-04 22:04:00,
2013-02-04 16:19:00,50.9,41.0,29.96,SSW,203,0.0,1.0,69,0.01,,,0.01,weatherlink.com 1.10,2013-02-04 22:19:00,
2013-02-04 16:34:00,50.5,41.0,29.96,SSW,210,0.0,1.0,69,0.01,,,0.01,weatherlink.com 1.10,2013-02-04 22:34:00,
2013-02-04 16:49:00,50.4,41.0,29.96,SSW,203,0.0,1.0,69,0.00,,,0.01,weatherlink.com 1.10,2013-02-04 22:49:00,
2013-02-04 17:04:00,50.5,40.0,29.96,SW,233,0.0,2.0,68,0.00,,,0.01,weatherlink.com 1.10,2013-02-04 23:04:00,
2013-02-04 17:19:00,49.9,42.0,29.96,WSW,242,0.0,1.0,75,0.01,,,0.02,weatherlink.com 1.10,2013-02-04 23:19:00,
2013-02-04 17:34:00,48.9,43.0,29.96,SW,215,0.0,1.0,79,0.02,,,0.03,weatherlink.com 1.10,2013-02-04 23:34:00,
2013-02-04 17:49:00,48.5,42.0,29.96,SSE,167,1.0,4.0,79,0.02,,,0.03,weatherlink.com 1.10,2013-02-04 23:49:00,
2013-02-04 18:04:00,48.1,43.0,29.96,SSW,212,0.0,2.0,82,0.03,,,0.04,weatherlink.com 1.10,2013-02-05 00:04:00,
2013-02-04 18:19:00,48.0,42.0,29.95,SSE,167,1.0,3.0,81,0.02,,,0.04,weatherlink.com 1.10,2013-02-05 00:19:00,
2013-02-04 18:34:00,48.2,43.0,29.95,SSW,207,1.0,2.0,81,0.01,,,0.04,weatherlink.com 1.10,2013-02-05 00:34:00,
2013-02-04 18:50:00,48.5,43.0,29.95,SSW,197,1.0,2.0,80,0.01,,,0.04,weatherlink.com 1.10,2013-02-05 00:50:00,
2013-02-04 19:04:00,48.9,42.0,29.95,SSW,203,0.0,3.0,78,0.00,,,0.04,weatherlink.com 1.10,2013-02-05 01:04:00,
2013-02-04 19:19:00,49.2,42.0,29.95,South,171,1.0,4.0,77,0.00,,,0.04,weatherlink.com 1.10,2013-02-05 01:19:00,
2013-02-04 19:34:00,49.2,43.0,29.95,SSE,148,0.0,3.0,78,0.00,,,0.04,weatherlink.com 1.10,2013-02-05 01:34:00,
2013-02-04 19:50:00,49.2,43.0,29.95,SSW,200,0.0,2.0,78,0.00,,,0.04,weatherlink.com 1.10,2013-02-05 01:50:00,
2013-02-04 20:05:00,49.2,43.0,29.97,WSW,245,0.0,4.0,79,0.00,,,0.04,weatherlink.com 1.10,2013-02-05 02:05:00,
2013-02-04 20:20:00,48.5,43.0,29.98,WSW,239,0.0,0.0,82,0.00,,,0.04,weatherlink.com 1.10,2013-02-05 02:20:00,
2013-02-04 20:35:00,48.4,43.0,29.98,NW,312,0.0,3.0,82,0.00,,,0.04,weatherlink.com 1.10,2013-02-05 02:35:00,
2013-02-04 20:50:00,48.1,44.0,29.98,NW,312,0.0,0.0,84,0.01,,,0.05,weatherlink.com 1.10,2013-02-05 02:50:00,
2013-02-04 21:05:00,47.9,44.0,29.98,NW,312,0.0,1.0,85,0.01,,,0.05,weatherlink.com 1.10,2013-02-05 03:05:00,
2013-02-04 21:20:00,47.8,44.0,29.98,NW,312,0.0,0.0,86,0.01,,,0.05,weatherlink.com 1.10,2013-02-05 03:20:00,
2013-02-04 21:35:00,47.9,44.0,29.98,SW,226,2.0,2.0,85,0.01,,,0.05,weatherlink.com 1.10,2013-02-05 03:35:00,
2013-02-04 21:50:00,48.0,43.0,29.98,SW,220,0.0,1.0,84,0.00,,,0.05,weatherlink.com 1.10,2013-02-05 03:50:00,
2013-02-04 22:05:00,48.0,44.0,29.98,SW,232,0.0,0.0,85,0.00,,,0.05,weatherlink.com 1.10,2013-02-05 04:05:00,
2013-02-04 22:20:00,47.9,44.0,29.98,SW,229,0.0,1.0,85,0.00,,,0.05,weatherlink.com 1.10,2013-02-05 04:20:00,
2013-02-04 22:35:00,47.8,44.0,29.98,SSW,210,0.0,0.0,86,0.00,,,0.05,weatherlink.com 1.10,2013-02-05 04:35:00,
2013-02-04 22:50:00,47.7,44.0,29.98,SW,235,0.0,2.0,87,0.00,,,0.05,weatherlink.com 1.10,2013-02-05 04:50:00,
2013-02-04 23:05:00,47.6,44.0,29.98,SSW,200,0.0,2.0,87,0.00,,,0.05,weatherlink.com 1.10,2013-02-05 05:05:00,
2013-02-04 23:20:00,47.7,44.0,29.97,WSW,250,0.0,2.0,88,0.00,,,0.05,weatherlink.com 1.10,2013-02-05 05:20:00,
2013-02-04 23:35:00,47.8,44.0,29.97,SW,235,0.0,2.0,87,0.00,,,0.05,weatherlink.com 1.10,2013-02-05 05:35:00,
2013-02-04 23:50:00,47.9,44.0,29.97,SW,217,0.0,2.0,87,0.00,,,0.05,weatherlink.com 1.10,2013-02-05 05:50:00,